{"data":{"norad_id":50189,"intl_designator":"2021-125AK","name":"STARLINK-3276","alt_names":[],"object_type":"PAYLOAD","status":"ACTIVE","operator":null,"country":"US","launch_date":"2021-12-18","launch_site_code":"AFWTR","launch_vehicle":null,"mission":null,"orbit_class":"UNKNOWN","rcs_meters":null,"size_class":null,"mass_kg":null,"dimensions":null,"purposes":["comms"],"wikipedia_slug":null,"has_3d_model":false,"image_url":null,"decayed_at":null,"tle_current":{"epoch":"2026-05-24T18:02:04.757280Z","epoch_age_seconds":96560,"freshness":"FRESH","line1":"1 50189U 21125AK  26144.75144395  .00016679  00000+0  88575-3 0  9993","line2":"2 50189  53.2147 264.0371 0002799  26.0603 334.0533 15.15446551248174","mean_motion":15.15446551,"eccentricity":0.0002799,"inclination_deg":53.2147,"raan_deg":264.0371,"arg_perigee_deg":26.0603,"mean_anomaly_deg":334.0533,"bstar":0.00088575,"rev_number":24817,"period_min":95.021497066313,"perigee_km":517.69251923571,"apogee_km":521.55388539697,"semimajor_km":6897.7602023163,"source":"CELESTRAK","updated_at":"2026-05-25T13:38:16.870566Z"}}}